Beaver, WV

10:30 PM EST on February 12, 2016 (GMT -0500)
Raleigh County Memorial

Weather History for KBKW - May, 2013

Change the Weather History Date:

Monday, May 27, 2013

  Actual Average Record
Temperature  
Mean Temperature 62 °F 62 °F  
Max Temperature 75 °F 72 °F 88 °F (1919)
Min Temperature 48 °F 52 °F 28 °F (1897)
Degree Days  
Heating Degree Days 3 4  
Month to date heating degree days 179 178  
Since 1 July heating degree days 5268 5287  
Cooling Degree Days 0 1  
Month to date cooling degree days 27 21  
Year to date cooling degree days 43 31  
Growing Degree Days 10 (Base 50)    
Moisture  
Dew Point 46 °F    
Average Humidity 60    
Maximum Humidity 73    
Minimum Humidity 47    
Precipitation  
Precipitation 0.01 in 0.15 in 1.69 in (1968)
Month to date precipitation 4.31 4.04  
Year to date precipitation 15.38 16.54  
Snow  
Snow 0.00 in - - ()
Month to date snowfall 0.0  
Since 1 September snowfall 72.0  
Snow Depth 0.00 in    
Sea Level Pressure  
Sea Level Pressure 30.19 in    
Wind  
Wind Speed 6 mph (SSE)    
Max Wind Speed 13 mph    
Max Gust Speed 17 mph    
Visibility 10 miles    
Events Rain    
T = Trace of Precipitation, MM = Missing Value Source: NWS Daily Summary

Daily Weather History Graph

Daily Weather History Graph

Search for Another Location

Airport or City:

Trip Planner

Search our weather history database for the weather conditions in past years. The results will help you decide how hot, cold, wet, or windy it might be!

Date:

Astronomy

May. 27, 2013 Rise Set
Actual Time 6:06 AM EDT 8:37 PM EDT
Civil Twilight 5:35 AM EDT 9:07 PM EDT
Nautical Twilight 4:58 AM EDT 9:45 PM EDT
Astronomical Twilight 4:16 AM EDT 10:27 PM EDT
Moon 11:16 PM EDT (5/27) 8:41 AM EDT (5/27)
Length of Visible Light 15h 31m
Length of Day
14h 31m
Waning Gibbous, 91% of the Moon is Illuminated
May 27
Waning Gibbous
May 31
Last Quarter
Jun 8
New
Jun 16
First Quarter
Jun 23
Full

Hourly Weather History & Observations

Time (EDT) Temp. Dew Point Humidity Pressure Visibility Wind Dir Wind Speed Gust Speed Precip Events Conditions
12:51 AM 51.1 °F 39.9 °F 66% 30.25 in 10.0 mi Calm Calm - N/A   Mostly Cloudy
1:51 AM 51.1 °F 42.1 °F 71% 30.25 in 10.0 mi Calm Calm - N/A   Mostly Cloudy
2:51 AM 52.0 °F 39.9 °F 63% 30.23 in 10.0 mi Calm Calm - N/A   Overcast
3:51 AM 52.0 °F 37.9 °F 59% 30.21 in 10.0 mi Calm Calm - N/A   Overcast
4:51 AM 52.0 °F 36.0 °F 54% 30.22 in 10.0 mi SE 4.6 mph - N/A   Overcast
5:51 AM 52.0 °F 34.0 °F 50% 30.22 in 10.0 mi Calm Calm - N/A   Overcast
6:51 AM 52.0 °F 35.1 °F 53% 30.24 in 10.0 mi ESE 5.8 mph - N/A   Mostly Cloudy
7:51 AM 53.1 °F 37.0 °F 55% 30.25 in 10.0 mi SSE 5.8 mph - N/A   Overcast
8:51 AM 55.0 °F 37.0 °F 51% 30.25 in 10.0 mi SSE 8.1 mph - N/A   Overcast
9:51 AM 53.1 °F 41.0 °F 64% 30.28 in 10.0 mi SE 6.9 mph - 0.01 in Rain Light Rain
10:51 AM 59.0 °F 45.0 °F 60% 30.25 in 10.0 mi SE 10.4 mph - 0.00 in   Scattered Clouds
11:51 AM 66.0 °F 46.9 °F 50% 30.23 in 10.0 mi SSE 8.1 mph - N/A   Clear
12:51 PM 69.1 °F 48.9 °F 49% 30.19 in 10.0 mi SE 9.2 mph - N/A   Overcast
1:51 PM 69.1 °F 50.0 °F 51% 30.18 in 10.0 mi South 3.5 mph - N/A   Overcast
2:51 PM 70.0 °F 51.1 °F 51% 30.17 in 10.0 mi Variable 4.6 mph - N/A   Overcast
3:51 PM 72.0 °F 53.1 °F 51% 30.14 in 10.0 mi SE 8.1 mph - N/A   Mostly Cloudy
4:51 PM 73.0 °F 54.0 °F 51% 30.13 in 10.0 mi SSW 5.8 mph - N/A   Mostly Cloudy
5:51 PM 72.0 °F 53.1 °F 51% 30.12 in 10.0 mi SE 5.8 mph - N/A   Overcast
6:51 PM 71.1 °F 54.0 °F 55% 30.10 in 10.0 mi SE 6.9 mph - N/A   Scattered Clouds
7:51 PM 70.0 °F 55.0 °F 59% 30.10 in 10.0 mi SSE 6.9 mph - N/A   Partly Cloudy
8:51 PM 68.0 °F 55.0 °F 63% 30.11 in 10.0 mi SE 5.8 mph - N/A   Mostly Cloudy
9:51 PM 64.9 °F 55.9 °F 73% 30.13 in 10.0 mi SSE 8.1 mph - N/A   Clear
10:51 PM 64.0 °F 55.9 °F 75% 30.13 in 10.0 mi SSE 9.2 mph - N/A   Clear
11:51 PM 64.9 °F 55.0 °F 70% 30.12 in 10.0 mi SSE 9.2 mph - N/A   Partly Cloudy